Regional Weather Roundup
Issued by NWS Charleston, SC

Current Version | Previous Version | Graphics & Text | Print | Product List | Glossary On
Versions: 1 2 3 4 5 6 7 8 9 10 11 12 13 14 15 16 17 18 19 20 21 22 23 24 25 26 27 28 29 30 31 32 33 34 35 36 37 38 39 40 41 42 43 44 45 46 47 48 49 50
000 ASUS42 KCHS 191110 RWRCHS REGIONAL WEATHER ROUNDUP NATIONAL WEATHER SERVICE CHARLESTON SC 700 AM EDT FRI SEP 19 2014 NOTE: "FAIR" INDICATES FEW OR NO CLOUDS BELOW 12,000 FEET WITH NO SIGNIFICANT WEATHER AND/OR OBSTRUCTIONS TO VISIBILITY. NOT ALL STATIONS ARE QUALITY CONTROLLED BY THE NATIONAL WEATHER SERVICE. USE DATA WITH CAUTION...ESPECIALLY DEWPOINT OBSERVATIONS. SCZ027-030-031-034>040-042>050-191200- ...SOUTH CAROLINA... CITY SKY/WX TMP DP RH WIND PRES REMARKS N CHARLESTON MOCLDY 72 69 90 NE7 30.03R WATERFRONT PRK N/A 75 N/A N/A N12 N/A FORT JOHNSON NOT AVBL MOUNT PLEASANT FAIR 72 68 88 E5 30.03R JOHNS ISLAND MOSUNNY 73 73 100 CALM 30.03R PINOPOLIS N/A 73 70 88 E12 29.96R MONCKS CORNER N/A 72 70 94 E3 30.03R SUMMERVILLE FAIR 70 70 100 NE3 30.04R BEAUFORT MCAS MOCLDY 72 70 93 W5 30.01R FOG BEAUFORT ARPT FAIR 73 72 94 NE6 30.00R HILTON HEAD IS CLEAR 75 73 94 N6 30.00R GEORGETOWN NOT AVBL WALTERBORO MOSUNNY 72 N/A N/A CALM 30.03R ORANGEBURG MOCLDY 69 67 93 E6 30.03S BARNWELL FAIR 70 70 100 E3 30.03S FOG AIKEN PTSUNNY 68 68 100 NE7 30.08R FOG MANNING FAIR 68 N/A N/A NE3 30.05R KINGSTREE NOT AVBL COLUMBIA HVY RAIN 68 64 87 N18G24 30.05S VSB 1/2 SUMTER MOCLDY 66 61 85 NE7 30.04R FLORENCE MOCLDY 66 62 87 E9 30.07R MYRTLE BEACH MOCLDY 70 63 78 NE7 30.06R N MYRTLE BEACH MOCLDY 67 62 84 NE7 30.06R $$ GAZ063-065-086>088-099>101-113>116-118-119-134-136>141-150-191200- ...GEORGIA... CITY SKY/WX TMP DP RH WIND PRES REMARKS SAVANNAH ARPT MOCLDY 71 68 90 N3 30.00R HUNTER AAF MOCLDY 71 70 98 N5 29.98R FORT STEWART MOCLDY 70 69 95 N3 29.99R STATESBORO NOT AVBL SYLVANIA CLOUDY 71 70 98 CALM 30.02R FOG CLAXTON FAIR N/A N/A N/A CALM 30.01R THOMSON MOCLDY 66 66 100 CALM 30.08R AUGUSTA-BUSH MOCLDY 66 65 96 CALM 30.02R FOG AUGUSTA-DANIEL MOCLDY 70 68 93 NE6 30.04R SWAINSBORO FAIR 72 72 100 CALM 30.02R VIDALIA CLOUDY 70 70 100 E6 30.01R ALMA MOCLDY 71 70 96 NE5 29.99R FOG WAYCROSS MOCLDY 74 74 100 CALM 29.99R FOG JESUP FAIR 73 72 94 CALM 29.99R BRUNSWICK CLOUDY 73 72 94 N5 29.99R SAINT SIMONS CLOUDY 75 68 78 SE14 29.99R $$ SCZ027-028-034-036>038-045-046-048>050-GAZ119-141-191200- ...LAKE AND SUPPLEMENTAL COASTAL OBSERVATIONS... STATION/POSITION TIME TEMP WIND PRES WAVE SWELL AIR SEA DIR/SP/G HT/PER HT/PER/DIR (UTC) (F) (DEG/KT/KT) (MB) (FT/S) (FT/S/D) UPR LAKE MARION NOT AVBL WINYAH BAY 1000 79 90/ 12 1016.0S LAKE MURRAY 1000 66 330/ 2/ 10 1017.9R ACE BASIN NERRS 1000 71 100/ 1 1016.0R FORT PULASKI 1100 77 360/ 7/ 9 1015.7R SAPELO ISLAND 1000 75 50/ 5 1015.0S $$ ANZ835-935-AMZ111-154-330-350-352-354-374-450-454-472-191200- ...C-MAN AND BUOY OBSERVATIONS... STATION/POSITION TIME TEMP WIND PRES WAVE SWELL AIR SEA DIR/SP/G HT/PER HT/PER/DIR (UTC) (F) (DEG/KT/KT) (MB) (FT/S) (FT/S/D) FOLLY BEACH CMAN 1000 75 260/ 5/ 7 1016.5R BUOY 41004 1100 80 83 80/ 12/ 16 1015.7R 4/ 6 3/ 6 BUOY 41008 1100 79 83 360/ 2/ 4 1015.3R 2/11 2/ 90/11 5E ST. MARYS GA 1100 83 N/A 2/10 2/ 90/11 FRYING PAN BUOY NOT AVBL BUOY 41025 1100 75 30/ 16/ 21 1018.3R 5/ 6 2/ 70/11 CAPE LOOKOUT NC 1000 74 20/ 10/ 15 1018.1R BUOY 41002 1037 79 82 70/ 16/ 17 1016.7R 4/ 6 2/ 60/11 BUOY 41010 1100 82 85 60/ 8/ 10 1014.3R 3/11 3/ 70/11 BUOY 41012 NOT AVBL ST AUGUSTINE FL 1100 76 340/ 5/ 5 1015.1R CAPERS NEARSHORE 1000 78 100/ 12/ 16 N/A FRIPP NEARSHORE NOT AVBL $$

USA.gov is the U.S. government's official web portal to all federal, state and local government web resources and services.